PH2M-13 Weather Reports


Display with metric or nautical units.
time (UTC)temp
F
wind
direction
speed
MPH
gust
MPH
rain 1hr
in
rain 24hr
in
rain mn
in
humidity
%
barometer
mb
20200703202305 63 264 8.0 21.0 0.00 0.01 0.01 70 1014.1
20200703201807 63 234 9.0 28.0 0.00 0.01 0.01 70 1014.3
20200703201303 63 300 12.0 29.0 0.00 0.01 0.01 69 1014.2
20200703200810 63 255 14.0 29.0 0.00 0.01 0.01 69 1014.5
20200703200301 63 261 11.0 23.0 0.00 0.01 0.01 70 1014.2
20200703200039 63 279 10.0 24.0 0.00 0.01 0.01 70 1014.1
20200703195817 63 279 10.0 24.0 0.00 0.01 0.01 70 1014.1
20200703195302 63 223 12.0 24.0 0.00 0.01 0.01 70 1014.1
20200703194807 63 238 9.0 22.0 0.00 0.01 0.01 70 1014.3
20200703194303 63 241 10.0 22.0 0.00 0.01 0.01 69 1014.1
20200703194034 63 247 12.0 28.0 0.00 0.01 0.01 69 1014.2
20200703193805 63 247 12.0 28.0 0.00 0.01 0.01 69 1014.2
20200703193304 64 250 9.0 28.0 0.00 0.01 0.01 68 1014.1
20200703192803 64 240 13.0 27.0 0.00 0.01 0.01 68 1014.3
20200703192301 64 244 10.0 27.0 0.00 0.01 0.01 68 1014.2
20200703191803 64 233 11.0 26.0 0.00 0.01 0.01 68 1014.4
20200703191302 64 241 9.0 24.0 0.00 0.01 0.01 68 1014.6
20200703190805 64 264 10.0 24.0 0.00 0.01 0.01 68 1014.6
20200703190303 64 290 11.0 24.0 0.00 0.01 0.01 68 1014.5
20200703185801 64 265 11.0 28.0 0.00 0.01 0.01 67 1014.6
20200703185301 64 204 13.0 30.0 0.00 0.01 0.01 67 1014.6
20200703184802 64 258 12.0 30.0 0.00 0.01 0.01 67 1014.6
20200703184303 64 258 17.0 30.0 0.00 0.01 0.01 66 1014.6
20200703183802 64 235 11.0 26.0 0.00 0.01 0.01 66 1014.5
20200703183302 64 271 13.0 26.0 0.00 0.01 0.01 65 1014.5
20200703182801 65 237 14.0 23.0 0.00 0.01 0.01 65 1014.6
20200703182303 65 289 9.0 35.0 0.00 0.01 0.01 65 1014.6
20200703181803 65 278 12.0 35.0 0.00 0.01 0.01 64 1014.5
20200703181302 65 238 15.0 31.0 0.00 0.01 0.01 63 1014.7
20200703180802 65 275 15.0 31.0 0.00 0.01 0.01 63 1014.9
20200703180307 65 286 15.0 31.0 0.00 0.01 0.01 63 1014.6
20200703175800 65 254 13.0 29.0 0.00 0.01 0.01 63 1014.6
20200703175300 65 233 13.0 27.0 0.00 0.01 0.01 62 1014.6
20200703174804 66 257 11.0 31.0 0.00 0.01 0.01 63 1014.6
20200703174531 66 275 15.0 31.0 0.00 0.01 0.01 63 1014.6
20200703174310 66 275 15.0 31.0 0.00 0.01 0.01 63 1014.6
20200703173804 66 244 12.0 26.0 0.00 0.01 0.01 62 1014.6
20200703173259 67 274 14.0 24.0 0.00 0.01 0.01 61 1014.7
20200703172803 67 285 12.0 28.0 0.00 0.01 0.01 60 1014.7
20200703172302 67 244 12.0 29.0 0.00 0.01 0.01 59 1014.7
20200703171759 68 224 13.0 33.0 0.00 0.01 0.01 60 1014.6
20200703171301 68 262 18.0 33.0 0.00 0.01 0.01 61 1014.6
20200703170759 68 233 18.0 31.0 0.00 0.01 0.01 62 1014.6
20200703170300 68 250 14.0 27.0 0.00 0.01 0.01 63 1014.8
20200703165759 68 276 14.0 27.0 0.00 0.01 0.01 62 1014.7
20200703165259 69 251 13.0 31.0 0.00 0.01 0.01 62 1014.8
20200703164800 69 228 13.0 31.0 0.00 0.01 0.01 63 1014.5
20200703164259 68 275 10.0 23.0 0.00 0.01 0.01 63 1014.5
20200703163759 68 259 7.0 20.0 0.00 0.01 0.01 64 1014.5
20200703163258 67 204 13.0 20.0 0.00 0.01 0.01 63 1014.4
20200703162759 67 258 9.0 21.0 0.00 0.01 0.01 63 1014.6
20200703162258 67 240 11.0 21.0 0.00 0.01 0.01 62 1014.4
20200703161759 68 279 10.0 24.0 0.00 0.01 0.01 63 1014.3
20200703161257 68 250 9.0 24.0 0.00 0.01 0.01 62 1014.5
20200703160758 68 251 10.0 24.0 0.00 0.01 0.01 61 1014.6
20200703160257 68 271 11.0 24.0 0.00 0.01 0.01 60 1014.5
20200703155757 69 231 13.0 26.0 0.00 0.01 0.01 59 1014.7
20200703155257 69 353 13.0 29.0 0.00 0.01 0.01 57 1014.7
20200703154759 69 247 12.0 29.0 0.00 0.01 0.01 57 1014.8
20200703154258 69 278 13.0 29.0 0.00 0.01 0.01 57 1014.8
20200703153758 69 227 13.0 29.0 0.00 0.01 0.01 57 1015.0
20200703153303 69 244 9.0 24.0 0.00 0.01 0.01 58 1014.7
20200703152757 69 251 11.0 30.0 0.00 0.01 0.01 59 1015.0
20200703152256 69 261 11.0 32.0 0.00 0.01 0.01 59 1014.9
20200703151758 70 271 17.0 32.0 0.00 0.01 0.01 57 1015.3
20200703151256 71 261 11.0 23.0 0.00 0.01 0.01 57 1014.8
20200703150757 71 255 9.0 19.0 0.00 0.01 0.01 58 1014.8
20200703150256 71 228 10.0 24.0 0.00 0.01 0.01 57 1014.9
20200703145758 71 240 9.0 27.0 0.00 0.01 0.01 58 1014.9
20200703145256 71 266 11.0 27.0 0.00 0.01 0.01 57 1014.9
20200703144757 70 261 13.0 26.0 0.00 0.01 0.01 57 1014.7
20200703144257 70 279 14.0 26.0 0.00 0.01 0.01 56 1014.7
20200703143755 70 227 11.0 23.0 0.00 0.01 0.01 56 1014.8
20200703143256 70 252 14.0 23.0 0.00 0.01 0.01 55 1015.0
20200703142755 70 206 9.0 24.0 0.00 0.01 0.01 55 1014.8
20200703142257 70 289 12.0 24.0 0.00 0.01 0.01 53 1014.8
20200703141755 70 300 15.0 32.0 0.00 0.01 0.01 53 1015.0
20200703141256 70 244 14.0 32.0 0.00 0.01 0.01 53 1015.0
20200703140755 70 251 13.0 32.0 0.00 0.01 0.01 53 1015.0
20200703140258 71 285 16.0 32.0 0.00 0.01 0.01 50 1015.1
20200703135755 71 278 15.0 27.0 0.00 0.01 0.01 50 1015.1
20200703135254 71 265 18.0 29.0 0.00 0.01 0.01 48 1015.3
20200703134755 71 248 15.0 29.0 0.00 0.01 0.01 49 1015.2
20200703134256 71 300 13.0 26.0 0.00 0.01 0.01 49 1015.1
20200703133757 71 271 13.0 28.0 0.00 0.01 0.01 50 1015.2
20200703133254 71 275 13.0 28.0 0.00 0.01 0.01 49 1015.0
20200703132757 71 247 9.0 22.0 0.00 0.01 0.01 53 1015.1
20200703132256 71 247 11.0 31.0 0.00 0.01 0.01 50 1015.0
20200703131756 71 234 11.0 35.0 0.00 0.01 0.01 48 1015.2
20200703131253 71 278 19.0 35.0 0.00 0.01 0.01 46 1015.1
20200703130754 71 251 12.0 29.0 0.00 0.01 0.01 53 1015.0
20200703130253 71 250 16.0 29.0 0.00 0.01 0.01 50 1015.1
20200703125753 71 255 9.0 22.0 0.00 0.01 0.01 55 1015.0
20200703125257 70 220 13.0 26.0 0.00 0.01 0.01 53 1015.0
20200703124755 70 212 12.0 26.0 0.00 0.01 0.01 53 1015.0
20200703124257 70 248 13.0 28.0 0.00 0.01 0.01 52 1015.0
20200703123753 70 266 16.0 28.0 0.00 0.01 0.01 52 1015.1
20200703123253 71 240 15.0 27.0 0.00 0.01 0.01 51 1015.3
20200703122755 71 247 14.0 30.0 0.00 0.01 0.01 53 1015.1
20200703122254 71 261 16.0 30.0 0.00 0.01 0.01 51 1015.6
20200703121754 71 250 13.0 26.0 0.00 0.01 0.01 54 1015.1
20200703121253 71 265 13.0 26.0 0.00 0.01 0.01 55 1015.2
20200703120759 70 266 13.0 24.0 0.00 0.01 0.01 54 1015.2
20200703120253 71 258 12.0 26.0 0.00 0.01 0.01 56 1015.2
20200703115756 71 281 15.0 26.0 0.00 0.01 0.01 56 1015.1
20200703115252 71 274 8.0 24.0 0.00 0.01 0.01 61 1015.2
20200703114751 70 243 9.0 24.0 0.00 0.01 0.01 62 1015.2
20200703114255 70 209 8.0 27.0 0.00 0.01 0.01 63 1015.2
20200703113752 70 241 13.0 27.0 0.00 0.01 0.01 62 1015.2
20200703113254 70 293 15.0 23.0 0.00 0.01 0.01 61 1015.1
20200703112754 70 251 13.0 24.0 0.00 0.01 0.01 66 1015.2
20200703112253 69 281 15.0 26.0 0.00 0.01 0.01 66 1015.2
20200703111752 69 265 10.0 26.0 0.00 0.01 0.01 69 1015.2
20200703111251 69 255 9.0 18.0 0.00 0.01 0.01 70 1015.0
20200703110751 68 264 11.0 19.0 0.00 0.01 0.01 72 1015.1
20200703110250 68 272 9.0 19.0 0.00 0.01 0.01 71 1015.3
20200703105753 68 302 10.0 17.0 0.00 0.01 0.01 71 1015.1
20200703105255 69 231 9.0 16.0 0.00 0.01 0.01 72 1015.0
20200703104751 68 245 9.0 22.0 0.00 0.01 0.01 74 1015.0
20200703104251 67 274 9.0 22.0 0.00 0.01 0.01 77 1014.9
20200703103752 66 258 6.0 12.0 0.00 0.01 0.01 82 1014.9
20200703103250 65 312 5.0 12.0 0.00 0.01 0.01 80 1014.9
20200703102754 65 288 6.0 11.0 0.00 0.01 0.01 81 1014.9
20200703102251 65 265 6.0 12.0 0.00 0.01 0.01 83 1014.9
20200703101752 65 216 7.0 13.0 0.00 0.01 0.01 82 1014.9
20200703101250 65 276 7.0 17.0 0.00 0.01 0.01 83 1015.0
20200703100749 65 257 6.0 17.0 0.00 0.01 0.01 81 1014.9
20200703100250 66 251 7.0 14.0 0.00 0.01 0.01 79 1014.9
20200703095750 66 276 7.0 13.0 0.00 0.01 0.01 81 1014.8
20200703095250 66 248 5.0 17.0 0.00 0.01 0.01 80 1014.8
20200703094749 66 258 7.0 17.0 0.00 0.01 0.01 79 1014.8
20200703094251 66 189 7.0 16.0 0.00 0.01 0.01 79 1014.8
20200703093749 65 257 8.0 12.0 0.00 0.01 0.01 81 1014.7
20200703093250 65 217 4.0 11.0 0.00 0.01 0.01 81 1014.7
20200703092751 65 244 4.0 11.0 0.00 0.01 0.01 82 1014.8
20200703092248 65 237 4.0 11.0 0.00 0.01 0.01 82 1014.8
20200703091248 65 259 5.0 12.0 0.00 0.01 0.01 80 1014.7
20200703090750 66 310 6.0 12.0 0.00 0.01 0.01 78 1014.6
20200703090249 66 264 6.0 11.0 0.00 0.01 0.01 78 1014.6
20200703085751 66 288 5.0 11.0 0.00 0.01 0.01 78 1014.6
20200703085248 66 265 5.0 11.0 0.00 0.01 0.01 77 1014.6
20200703084749 66 243 5.0 12.0 0.00 0.01 0.01 77 1014.6
20200703084248 66 207 6.0 12.0 0.00 0.01 0.01 76 1014.6
20200703083747 67 262 6.0 13.0 0.00 0.01 0.01 74 1014.6
20200703083248 67 309 6.0 13.0 0.00 0.01 0.01 74 1014.7
20200703082750 67 275 5.0 11.0 0.00 0.01 0.01 74 1014.7
20200703082248 66 204 6.0 13.0 0.00 0.01 0.01 75 1014.8
20200703081747 66 279 8.0 13.0 0.00 0.01 0.01 76 1014.7
20200703081248 66 247 4.0 16.0 0.00 0.01 0.01 77 1014.7
20200703080748 66 288 8.0 16.0 0.00 0.01 0.01 75 1014.7
20200703080247 66 250 5.0 12.0 0.00 0.01 0.01 76 1014.6
20200703075748 66 224 6.0 16.0 0.00 0.01 0.01 75 1014.6
20200703075246 65 247 6.0 16.0 0.00 0.01 0.01 76 1014.6
20200703074750 65 317 4.0 12.0 0.00 0.01 0.01 78 1014.5
20200703074248 65 234 5.0 12.0 0.00 0.01 0.01 78 1014.5
20200703073748 65 255 6.0 11.0 0.00 0.01 0.01 77 1014.5
20200703073246 65 243 5.0 13.0 0.00 0.01 0.01 78 1014.5
20200703072750 64 230 4.0 13.0 0.00 0.01 0.01 79 1014.5
20200703072247 64 223 5.0 11.0 0.00 0.01 0.01 79 1014.5
20200703071747 64 261 5.0 9.0 0.00 0.01 0.01 80 1014.5
20200703071245 63 250 4.0 9.0 0.00 0.01 0.01 82 1014.5
20200703070749 63 265 4.0 10.0 0.00 0.01 0.01 82 1014.5
20200703070248 63 221 4.0 10.0 0.00 0.01 0.01 82 1014.6
20200703065745 63 261 3.0 10.0 0.00 0.01 0.01 84 1014.6
20200703065246 63 254 3.0 10.0 0.00 0.01 0.01 83 1014.6
20200703064746 62 250 5.0 11.0 0.00 0.01 0.01 82 1014.7
20200703064246 62 223 5.0 11.0 0.00 0.02 0.01 83 1014.7
20200703063745 62 247 5.0 10.0 0.00 0.02 0.01 84 1014.6
20200703063245 62 251 4.0 10.0 0.00 0.02 0.01 84 1014.5
20200703062745 62 243 4.0 7.0 0.00 0.02 0.01 83 1014.6
20200703062245 62 197 4.0 9.0 0.00 0.02 0.01 83 1014.5
20200703061747 62 336 4.0 9.0 0.00 0.02 0.01 83 1014.5
20200703061245 62 243 4.0 9.0 0.00 0.02 0.01 84 1014.5
20200703060746 61 240 4.0 9.0 0.00 0.02 0.01 84 1014.4
20200703060244 61 278 5.0 9.0 0.00 0.02 0.01 85 1014.4
20200703055744 61 255 3.0 9.0 0.00 0.02 0.01 86 1014.5
20200703055245 61 254 3.0 9.0 0.00 0.02 0.01 88 1014.4
20200703054744 60 257 3.0 4.0 0.00 0.02 0.01 89 1014.4
20200703054246 60 255 2.0 7.0 0.00 0.02 0.01 89 1014.5
20200703053744 59 250 3.0 7.0 0.00 0.02 0.01 88 1014.5
20200703053245 59 240 3.0 6.0 0.00 0.02 0.01 89 1014.5
20200703052744 59 262 3.0 6.0 0.00 0.02 0.01 89 1014.5
20200703052244 59 275 3.0 5.0 0.00 0.02 0.01 89 1014.4
20200703051743 59 282 3.0 5.0 0.00 0.02 0.01 90 1014.4
20200703051243 58 262 3.0 5.0 0.00 0.02 0.01 91 1014.3
20200703050743 58 262 3.0 5.0 0.00 0.02 0.01 91 1014.3
20200703050244 58 250 2.0 5.0 0.00 0.02 0.01 92 1014.3
20200703045744 58 244 3.0 4.0 0.00 0.02 0.01 92 1014.3
20200703045242 58 221 1.0 4.0 0.00 0.02 0.01 92 1014.2
20200703044745 58 221 2.0 4.0 0.00 0.02 0.01 92 1014.2
20200703044244 57 233 1.0 4.0 0.00 0.02 0.01 92 1014.2
20200703043745 57 233 2.0 4.0 0.00 0.02 0.01 93 1014.2
20200703043243 57 254 3.0 4.0 0.00 0.02 0.01 93 1014.2
20200703042742 56 243 2.0 4.0 0.00 0.02 0.01 93 1014.2
20200703042242 56 243 2.0 4.0 0.00 0.02 0.01 93 1014.1
20200703041742 56 257 1.0 4.0 0.00 0.02 0.01 93 1014.1
20200703041243 56 257 2.0 4.0 0.00 0.02 0.01 93 1014.1
20200703040742 56 259 2.0 3.0 0.00 0.02 0.01 93 1014.0
20200703040244 56 261 2.0 4.0 0.00 0.02 0.01 93 1013.9
20200703035743 56 231 2.0 4.0 0.00 0.02 0.01 93 1013.8
20200703035240 56 243 2.0 4.0 0.00 0.02 0.01 93 1013.8
20200703034741 56 235 2.0 3.0 0.00 0.02 0.01 93 1013.8
20200703034241 56 234 2.0 3.0 0.00 0.02 0.01 93 1013.8
20200703033742 56 221 1.0 3.0 0.00 0.02 0.01 93 1013.8
20200703033242 56 221 2.0 3.0 0.00 0.02 0.01 93 1013.7
20200703032742 56 221 1.0 2.0 0.00 0.02 0.01 93 1013.6
20200703032240 56 221 1.0 3.0 0.00 0.02 0.01 93 1013.6
20200703031742 56 221 1.0 3.0 0.00 0.02 0.01 93 1013.6
20200703031242 56 237 2.0 3.0 0.00 0.02 0.01 93 1013.6
20200703030740 56 255 1.0 2.0 0.00 0.02 0.01 92 1013.5
20200703030241 56 255 1.0 2.0 0.00 0.02 0.01 92 1013.5
20200703025739 56 255 0.0 2.0 0.00 0.02 0.01 92 1013.5
20200703025241 56 255 1.0 2.0 0.00 0.02 0.01 92 1013.4
20200703024739 56 255 1.0 2.0 0.00 0.02 0.01 91 1013.4
20200703024242 56 255 1.0 3.0 0.00 0.02 0.01 91 1013.5
20200703023739 56 255 2.0 3.0 0.00 0.02 0.01 91 1013.5
20200703023241 57 255 1.0 3.0 0.00 0.02 0.01 91 1013.5
20200703022740 57 255 1.0 4.0 0.00 0.02 0.01 91 1013.3
20200703022512 57 255 2.0 4.0 0.00 0.02 0.01 90 1013.3
20200703021740 57 251 2.0 5.0 0.00 0.02 0.01 91 1013.2
20200703021238 57 278 2.0 5.0 0.00 0.02 0.01 90 1013.1
20200703020740 58 248 4.0 5.0 0.00 0.02 0.01 90 1013.1
20200703020238 58 276 3.0 6.0 0.00 0.02 0.01 90 1013.1
20200703015739 58 262 3.0 6.0 0.00 0.02 0.01 90 1013.1
20200703015238 58 261 4.0 7.0 0.00 0.02 0.01 90 1013.1
20200703014738 58 282 5.0 7.0 0.00 0.02 0.01 90 1013.1
20200703014239 58 243 5.0 7.0 0.00 0.02 0.01 90 1013.2
20200703013738 58 261 5.0 9.0 0.00 0.02 0.01 90 1013.3
20200703013239 58 257 4.0 9.0 0.00 0.02 0.01 90 1013.4
20200703012738 59 271 4.0 9.0 0.00 0.02 0.01 90 1013.3
20200703012240 59 259 6.0 9.0 0.00 0.02 0.01 90 1013.3
20200703011738 59 262 5.0 9.0 0.00 0.02 0.01 90 1013.2
20200703011241 59 269 4.0 7.0 0.00 0.02 0.01 90 1013.1
20200703010737 60 252 4.0 7.0 0.00 0.02 0.01 90 1013.1
20200703010237 60 268 4.0 11.0 0.00 0.02 0.01 90 1013.1
20200703005737 60 289 4.0 11.0 0.00 0.02 0.01 90 1013.0
20200703005238 60 289 6.0 11.0 0.00 0.02 0.01 90 1013.0
20200703004737 60 296 5.0 10.0 0.00 0.02 0.01 90 1013.1
20200703004237 60 293 6.0 11.0 0.00 0.02 0.01 90 1013.0
20200703003738 60 248 5.0 11.0 0.00 0.02 0.01 90 1013.0
20200703003239 60 295 5.0 11.0 0.00 0.02 0.01 90 1012.9
20200703002740 61 265 6.0 9.0 0.00 0.02 0.01 90 1013.0
20200703002236 61 286 5.0 9.0 0.00 0.02 0.01 91 1013.0
20200703001736 61 272 5.0 7.0 0.00 0.02 0.01 91 1012.9
20200703001238 61 283 4.0 9.0 0.00 0.02 0.01 91 1012.9
20200703000736 60 226 5.0 9.0 0.00 0.02 0.01 91 1012.8
20200703000239 61 275 5.0 9.0 0.00 0.02 0.01 91 1012.9
20200702235735 61 271 4.0 9.0 0.00 0.02 0.01 90 1012.8
20200702235239 61 269 4.0 9.0 0.00 0.02 0.01 90 1012.8
20200702234736 61 303 4.0 9.0 0.01 0.02 0.01 90 1012.8
20200702234236 61 268 5.0 11.0 0.01 0.02 0.01 90 1012.9
20200702233736 61 282 6.0 11.0 0.01 0.02 0.01 90 1012.9
20200702233236 61 247 4.0 9.0 0.01 0.02 0.01 90 1012.8
20200702232736 61 251 4.0 7.0 0.01 0.02 0.01 90 1012.7
20200702232235 61 264 2.0 5.0 0.01 0.02 0.01 89 1012.6
20200702231737 61 243 2.0 4.0 0.01 0.02 0.01 89 1012.6
20200702231236 61 235 2.0 4.0 0.01 0.02 0.01 89 1012.6
20200702230736 61 243 2.0 5.0 0.01 0.02 0.01 89 1012.6
20200702230234 61 217 3.0 5.0 0.01 0.02 0.01 89 1012.5
20200702225734 61 248 3.0 5.0 0.01 0.02 0.01 89 1012.6
20200702225234 61 224 2.0 4.0 0.01 0.02 0.01 88 1012.6
20200702224736 61 231 2.0 3.0 0.00 0.02 0.00 87 1012.6
20200702224234 61 264 2.0 6.0 0.00 0.02 0.00 87 1012.4
20200702223734 61 300 3.0 6.0 0.00 0.02 0.00 87 1012.4
20200702223235 61 240 3.0 5.0 0.00 0.02 0.00 87 1012.4
20200702222734 61 240 2.0 5.0 0.00 0.02 0.00 87 1012.4
20200702222235 61 265 2.0 7.0 0.00 0.02 0.00 86 1012.4
20200702221734 61 282 4.0 10.0 0.00 0.02 0.00 86 1012.4
20200702221235 61 247 6.0 10.0 0.00 0.02 0.00 86 1012.4
20200702220732 61 272 3.0 10.0 0.00 0.02 0.00 86 1012.4
20200702220232 61 258 5.0 10.0 0.00 0.02 0.00 86 1012.3
20200702215734 61 272 3.0 6.0 0.00 0.02 0.02 86 1012.2
20200702215234 62 265 4.0 9.0 0.00 0.02 0.02 86 1012.3
20200702214731 62 295 5.0 11.0 0.00 0.02 0.02 85 1012.2
20200702214232 62 262 5.0 11.0 0.00 0.02 0.02 85 1012.2
20200702213730 62 272 5.0 9.0 0.00 0.02 0.02 86 1012.3
20200702213228 62 274 5.0 10.0 0.00 0.02 0.02 85 1012.3
20200702212731 62 247 4.0 11.0 0.00 0.02 0.02 84 1012.2
20200702212227 62 257 4.0 11.0 0.00 0.02 0.02 84 1012.4
20200702211728 62 279 6.0 12.0 0.00 0.02 0.02 84 1012.3
20200702211228 62 271 4.0 12.0 0.00 0.02 0.02 84 1012.2
20200702210727 62 255 5.0 12.0 0.00 0.02 0.02 84 1012.1
20200702210225 62 271 2.0 4.0 0.00 0.02 0.02 83 1012.2
20200702205729 62 238 2.0 5.0 0.00 0.02 0.02 82 1012.1
20200702205223 62 271 2.0 6.0 0.00 0.02 0.02 82 1012.1
20200702204724 62 243 4.0 6.0 0.00 0.02 0.02 81 1012.2
20200702204225 62 245 4.0 6.0 0.00 0.02 0.02 81 1012.2
20200702203722 62 213 3.0 6.0 0.00 0.02 0.02 82 1012.2
20200702203225 62 251 4.0 6.0 0.00 0.02 0.02 82 1012.1
20200702202723 62 283 4.0 7.0 0.00 0.02 0.02 82 1012.1